Weather History for KELP - April, 2013

Change the Weather History Date:

Friday, April 26, 2013

  Actual Average Record
Temperature  
Mean Temperature 71 °F 68 °F  
Max Temperature 84 °F 82 °F 95 °F (2012)
Min Temperature 58 °F 54 °F 38 °F (1997)
Degree Days  
Heating Degree Days 0 2  
Month to date heating degree days 60 88  
Since 1 July heating degree days 2198 2461  
Cooling Degree Days 6 4  
Month to date cooling degree days 100 62  
Year to date cooling degree days 133 72  
Growing Degree Days 23 (Base 50)    
Moisture  
Dew Point 10 °F    
Average Humidity 12    
Maximum Humidity 19    
Minimum Humidity 5    
Precipitation  
Precipitation 0.00 in 0.01 in 0.86 in (1941)
Month to date precipitation T 0.20  
Year to date precipitation 0.71 1.32  
Snow  
Snow 0.00 in - - ()
Month to date snowfall 0.0  
Since 1 July snowfall 3.1  
Snow Depth 0.00 in    
Sea Level Pressure  
Sea Level Pressure 29.91 in    
Wind  
Wind Speed 8 mph (WNW)    
Max Wind Speed 22 mph    
Max Gust Speed 25 mph    
Visibility 10 miles    
Events      
T = Trace of Precipitation, MM = Missing Value Source: NWS Daily Summary

Daily Weather History Graph

Daily Weather History Graph

Search for Another Location

Airport or City:

Trip Planner

Search our weather history database for the weather conditions in past years. The results will help you decide how hot, cold, wet, or windy it might be!

Date:

Astronomy

Apr. 26, 2013 Rise Set
Actual Time 6:24 AM MDT 7:42 PM MDT
Civil Twilight 5:58 AM MDT 8:08 PM MDT
Nautical Twilight 5:28 AM MDT 8:38 PM MDT
Astronomical Twilight 4:56 AM MDT 9:10 PM MDT
Moon 9:03 PM MDT (4/26) 6:57 AM MDT (4/26)
Length of Visible Light 14h 09m
Length of Day
13h 17m
Full, 99% of the Moon is Illuminated
Apr 26
Full
May 2
Last Quarter
May 9
New
May 17
First Quarter
May 24
Full

Hourly Weather History & Observations

Time (MDT) Temp. Dew Point Humidity Pressure Visibility Wind Dir Wind Speed Gust Speed Precip Events Conditions
12:51 AM 71.1 °F 12.0 °F 10% 29.83 in 10.0 mi West 18.4 mph - N/A   Partly Cloudy
1:51 AM 69.1 °F 17.1 °F 14% 29.83 in 10.0 mi WNW 13.8 mph 19.6 mph N/A   Partly Cloudy
2:51 AM 68.0 °F 19.0 °F 15% 29.86 in 10.0 mi NW 13.8 mph 21.9 mph N/A   Partly Cloudy
3:51 AM 64.9 °F 18.0 °F 16% 29.87 in 10.0 mi North 5.8 mph - N/A   Clear
4:51 AM 63.0 °F 18.0 °F 18% 29.90 in 10.0 mi NNW 6.9 mph - N/A   Clear
5:51 AM 62.1 °F 18.0 °F 18% 29.91 in 10.0 mi WNW 4.6 mph - N/A   Partly Cloudy
6:51 AM 63.0 °F 19.0 °F 18% 29.92 in 10.0 mi North 5.8 mph - N/A   Partly Cloudy
7:51 AM 68.0 °F 18.0 °F 15% 29.94 in 10.0 mi West 13.8 mph 18.4 mph N/A   Clear
8:51 AM 68.0 °F 14.0 °F 12% 29.96 in 10.0 mi NW 15.0 mph 19.6 mph N/A   Partly Cloudy
9:51 AM 70.0 °F 10.9 °F 10% 29.97 in 10.0 mi NW 10.4 mph - N/A   Clear
10:51 AM 73.0 °F 12.0 °F 10% 29.96 in 10.0 mi West 11.5 mph 19.6 mph N/A   Clear
11:51 AM 75.0 °F 8.1 °F 8% 29.95 in 10.0 mi West 10.4 mph - N/A   Clear
12:51 PM 79.0 °F 8.1 °F 7% 29.94 in 10.0 mi SW 9.2 mph - N/A   Clear
1:51 PM 79.0 °F 6.1 °F 6% 29.93 in 10.0 mi West 8.1 mph 25.3 mph N/A   Clear
2:51 PM 81.0 °F 7.0 °F 6% 29.91 in 10.0 mi SSW 5.8 mph 19.6 mph N/A   Clear
3:51 PM 82.9 °F 7.0 °F 6% 29.89 in 10.0 mi NW 10.4 mph 16.1 mph N/A   Clear
4:51 PM 82.9 °F 6.1 °F 5% 29.88 in 10.0 mi West 9.2 mph - N/A   Clear
5:51 PM 82.0 °F 3.9 °F 5% 29.88 in 10.0 mi Calm Calm - N/A   Partly Cloudy
6:51 PM 80.1 °F 1.9 °F 5% 29.88 in 10.0 mi West 12.7 mph 17.3 mph N/A   Partly Cloudy
7:51 PM 78.1 °F 3.0 °F 5% 29.89 in 10.0 mi WSW 5.8 mph - N/A   Clear
8:51 PM 75.0 °F 5.0 °F 7% 29.91 in 10.0 mi Calm Calm - N/A   Clear
9:51 PM 72.0 °F 8.1 °F 8% 29.94 in 10.0 mi NW 4.6 mph - N/A   Clear
10:51 PM 66.9 °F 5.0 °F 9% 29.94 in 10.0 mi North 8.1 mph - N/A   Clear
11:51 PM 62.1 °F 5.0 °F 10% 29.96 in 10.0 mi ENE 3.5 mph - N/A   Clear